When you browse on this site, cookies collect data to enhance your experience and personalize the content and advertising you see.
Visit our Privacy Policy to learn more. By continuing to use the site, you agree to this use of cookies and data.
  • In Netherlands
  • List of Countries
  • For 7 days
  • Water Temperature
  • Weather Map
  • Weather Widgets
  • user-avatar
    Login

    Hourly Weather Kondratkovo

    Today, 24 January, Friday

    Time Temperature Precipitation Wind Pressure Humidity
    00:00 -5°C° 0 mm 2 mps 742 mmHg 81%
    01:00 -6°C° 0 mm 3 mps 742 mmHg 82%
    02:00 -5°C° 0 mm 3 mps 741 mmHg 83%
    03:00 -5°C° 0.2 mm 3 mps 740 mmHg 86%
    04:00 -5°C° 0.2 mm 4 mps 739 mmHg 89%
    05:00 -4°C° 0.2 mm 4 mps 738 mmHg 92%
    06:00 -5°C° 0.3 mm 5 mps 737 mmHg 92%
    07:00 -5°C° 0.3 mm 5 mps 736 mmHg 93%
    08:00 -4°C° 0.3 mm 5 mps 736 mmHg 93%
    09:00 -2°C° 0 mm 5 mps 735 mmHg 90%
    10:00 -1°C° 0 mm 5 mps 735 mmHg 87%
    11:00 0°C° 0 mm 5 mps 734 mmHg 83%
    12:00 0°C° 0.1 mm 5 mps 734 mmHg 87%
    13:00 0°C° 0.1 mm 5 mps 733 mmHg 92%
    14:00 0°C° 0.1 mm 5 mps 733 mmHg 96%
    15:00 0°C° 0.1 mm 4 mps 733 mmHg 94%
    16:00 0°C° 0.1 mm 4 mps 733 mmHg 93%
    17:00 0°C° 0.1 mm 4 mps 733 mmHg 91%
    18:00 -1°C° 0 mm 4 mps 733 mmHg 90%
    19:00 -2°C° 0 mm 4 mps 733 mmHg 88%
    20:00 -2°C° 0 mm 4 mps 733 mmHg 87%
    21:00 -2°C° 0 mm 4 mps 733 mmHg 87%
    22:00 -2°C° 0 mm 4 mps 733 mmHg 86%
    23:00 -2°C° 0 mm 3 mps 733 mmHg 86%

    Tomorrow, 25 January, Saturday

    Time Temperature Precipitation Wind Pressure Humidity
    00:00 -3°C° 0 mm 4 mps 733 mmHg 88%
    01:00 -3°C° 0 mm 4 mps 733 mmHg 90%
    02:00 -4°C° 0 mm 4 mps 733 mmHg 92%
    03:00 -3°C° 0 mm 4 mps 733 mmHg 88%
    04:00 -3°C° 0 mm 4 mps 732 mmHg 84%
    05:00 -2°C° 0 mm 4 mps 732 mmHg 80%
    06:00 -2°C° 0 mm 4 mps 732 mmHg 83%
    07:00 -2°C° 0 mm 4 mps 731 mmHg 86%
    08:00 -2°C° 0 mm 4 mps 731 mmHg 89%
    09:00 -2°C° 0.2 mm 5 mps 730 mmHg 85%
    10:00 -2°C° 0.2 mm 6 mps 730 mmHg 81%
    11:00 -2°C° 0.2 mm 7 mps 729 mmHg 77%
    12:00 -2°C° 0.2 mm 7 mps 729 mmHg 73%
    13:00 -3°C° 0.2 mm 6 mps 729 mmHg 69%
    14:00 -3°C° 0.2 mm 6 mps 730 mmHg 65%
    15:00 -4°C° 0 mm 6 mps 730 mmHg 69%
    16:00 -4°C° 0 mm 6 mps 731 mmHg 73%
    17:00 -5°C° 0 mm 6 mps 731 mmHg 77%
    18:00 -5°C° 0.1 mm 6 mps 732 mmHg 80%
    19:00 -5°C° 0.1 mm 6 mps 732 mmHg 82%
    20:00 -5°C° 0.1 mm 6 mps 732 mmHg 85%
    21:00 -5°C° 0 mm 6 mps 733 mmHg 84%
    22:00 -6°C° 0 mm 6 mps 735 mmHg 83%
    23:00 -6°C° 0 mm 6 mps 736 mmHg 81%

    Day after tomorrow, 26 January, Sunday

    Time Temperature Precipitation Wind Pressure Humidity
    00:00 -6°C° 0 mm 5 mps 736 mmHg 82%
    01:00 -6°C° 0 mm 5 mps 737 mmHg 82%
    02:00 -6°C° 0 mm 5 mps 738 mmHg 82%
    03:00 -6°C° 0 mm 5 mps 739 mmHg 81%
    04:00 -7°C° 0 mm 4 mps 739 mmHg 81%
    05:00 -7°C° 0 mm 4 mps 740 mmHg 80%
    06:00 -7°C° 0 mm 4 mps 741 mmHg 82%
    07:00 -6°C° 0 mm 3 mps 741 mmHg 83%
    08:00 -6°C° 0 mm 3 mps 741 mmHg 84%
    09:00 -6°C° 0 mm 3 mps 742 mmHg 83%
    10:00 -5°C° 0 mm 3 mps 742 mmHg 82%
    11:00 -4°C° 0 mm 4 mps 742 mmHg 81%
    12:00 -4°C° 0 mm 3 mps 742 mmHg 80%
    13:00 -4°C° 0 mm 3 mps 741 mmHg 79%
    14:00 -2°C° 0 mm 3 mps 741 mmHg 78%
    15:00 -3°C° 0.3 mm 4 mps 740 mmHg 83%
    16:00 -3°C° 0.3 mm 4 mps 739 mmHg 89%
    17:00 -4°C° 0.3 mm 5 mps 739 mmHg 94%
    18:00 -2°C° 0.2 mm 5 mps 738 mmHg 94%
    19:00 0°C° 0.2 mm 5 mps 738 mmHg 93%
    20:00 +1°C° 0.2 mm 5 mps 738 mmHg 93%
    21:00 +1°C° 0.1 mm 5 mps 738 mmHg 93%
    22:00 +1°C° 0.1 mm 6 mps 738 mmHg 93%
    23:00 +1°C° 0.1 mm 6 mps 738 mmHg 92%

    27 January, Monday

    Time Temperature Precipitation Wind Pressure Humidity
    00:00 +1°C° 0.2 mm 5 mps 739 mmHg 93%
    01:00 +1°C° 0.2 mm 5 mps 739 mmHg 94%
    02:00 +1°C° 0.2 mm 5 mps 740 mmHg 94%
    03:00 +1°C° 0.2 mm 4 mps 740 mmHg 95%
    04:00 0°C° 0.2 mm 4 mps 741 mmHg 96%
    05:00 +1°C° 0.2 mm 3 mps 741 mmHg 97%
    06:00 0°C° 0.2 mm 3 mps 742 mmHg 96%
    07:00 -1°C° 0.2 mm 2 mps 742 mmHg 95%
    08:00 -2°C° 0.2 mm 2 mps 743 mmHg 95%
    09:00 -2°C° 0.1 mm 2 mps 743 mmHg 92%
    10:00 -2°C° 0.1 mm 2 mps 744 mmHg 89%
    11:00 0°C° 0.1 mm 1 mps 744 mmHg 87%
    12:00 -3°C° 0.1 mm 2 mps 744 mmHg 88%
    13:00 -3°C° 0.1 mm 2 mps 745 mmHg 88%
    14:00 -3°C° 0.1 mm 2 mps 745 mmHg 89%
    15:00 -3°C° 0.2 mm 2 mps 745 mmHg 91%
    16:00 -4°C° 0.2 mm 2 mps 745 mmHg 92%
    17:00 -5°C° 0.2 mm 3 mps 745 mmHg 94%
    18:00 -5°C° 0.4 mm 3 mps 745 mmHg 94%
    19:00 -5°C° 0.4 mm 3 mps 745 mmHg 94%
    20:00 -5°C° 0.4 mm 3 mps 745 mmHg 94%
    21:00 -5°C° 0.3 mm 3 mps 745 mmHg 94%
    22:00 -5°C° 0.3 mm 3 mps 745 mmHg 94%
    23:00 -5°C° 0.3 mm 3 mps 745 mmHg 93%

    28 January, Tuesday

    Time Temperature Precipitation Wind Pressure Humidity
    00:00 -5°C° 0.1 mm 3 mps 745 mmHg 93%
    01:00 -5°C° 0.1 mm 3 mps 745 mmHg 93%
    02:00 -4°C° 0.1 mm 2 mps 745 mmHg 94%
    03:00 -4°C° 0.1 mm 2 mps 745 mmHg 94%
    04:00 -4°C° 0.1 mm 2 mps 745 mmHg 94%
    05:00 -3°C° 0.1 mm 2 mps 745 mmHg 95%
    06:00 -3°C° 0.2 mm 2 mps 745 mmHg 95%
    07:00 -3°C° 0.2 mm 2 mps 745 mmHg 95%
    08:00 -3°C° 0.2 mm 2 mps 745 mmHg 95%
    09:00 -3°C° 0.1 mm 2 mps 745 mmHg 95%
    10:00 -3°C° 0.1 mm 2 mps 745 mmHg 95%
    11:00 -2°C° 0.1 mm 2 mps 745 mmHg 95%
    12:00 -2°C° 0.1 mm 2 mps 745 mmHg 95%
    13:00 -2°C° 0.1 mm 2 mps 745 mmHg 96%
    14:00 0°C° 0.1 mm 1 mps 746 mmHg 96%
    15:00 -1°C° 0.1 mm 2 mps 746 mmHg 97%
    16:00 -1°C° 0.1 mm 2 mps 746 mmHg 97%
    17:00 -1°C° 0.1 mm 2 mps 746 mmHg 98%
    18:00 -1°C° 0 mm 2 mps 746 mmHg 97%
    19:00 -1°C° 0 mm 2 mps 746 mmHg 97%
    20:00 -1°C° 0 mm 2 mps 746 mmHg 97%
    21:00 -1°C° 0 mm 2 mps 746 mmHg 97%
    22:00 -1°C° 0 mm 2 mps 746 mmHg 96%
    23:00 -1°C° 0 mm 2 mps 746 mmHg 96%

    29 January, Wednesday

    Time Temperature Precipitation Wind Pressure Humidity
    00:00 -1°C° 0.1 mm 2 mps 746 mmHg 96%
    01:00 -1°C° 0.1 mm 2 mps 745 mmHg 96%
    02:00 -1°C° 0.1 mm 3 mps 745 mmHg 96%
    03:00 -1°C° 0 mm 3 mps 745 mmHg 97%
    04:00 -1°C° 0 mm 3 mps 745 mmHg 97%
    05:00 0°C° 0 mm 3 mps 745 mmHg 97%
    06:00 -1°C° 0 mm 3 mps 745 mmHg 95%
    07:00 -1°C° 0 mm 3 mps 744 mmHg 93%
    08:00 -2°C° 0 mm 4 mps 744 mmHg 91%
    09:00 -2°C° 0 mm 4 mps 744 mmHg 93%
    10:00 -2°C° 0 mm 4 mps 744 mmHg 94%
    11:00 -1°C° 0 mm 3 mps 744 mmHg 95%
    12:00 0°C° 0 mm 3 mps 744 mmHg 95%
    13:00 -1°C° 0 mm 4 mps 743 mmHg 94%
    14:00 -1°C° 0 mm 4 mps 743 mmHg 94%
    15:00 -1°C° 0 mm 4 mps 743 mmHg 94%
    16:00 -1°C° 0 mm 4 mps 743 mmHg 95%
    17:00 -2°C° 0 mm 4 mps 743 mmHg 96%
    18:00 -2°C° 0 mm 4 mps 742 mmHg 96%
    19:00 -2°C° 0 mm 4 mps 742 mmHg 96%
    20:00 -2°C° 0 mm 4 mps 742 mmHg 96%
    21:00 -2°C° 0 mm 4 mps 742 mmHg 96%
    22:00 -2°C° 0 mm 4 mps 741 mmHg 96%
    23:00 -2°C° 0 mm 4 mps 741 mmHg 96%
    Show more